| time (UTC) | temp C | wind direction | speed KPH | gust KPH | rain 1hr cm | rain 24hr cm | rain mn cm | humidity % | barometer mb |
| 20260507155533 | 16 | 248 | 1.6 | 24.1 | 0.00 | 0.00 | 0.00 | 55 | 1017.4 |
| 20260507155027 | 16 | 208 | 4.8 | 20.9 | 0.00 | 0.00 | 0.00 | 57 | 1017.6 |
| 20260507154527 | 16 | 235 | 4.8 | 20.9 | 0.00 | 0.00 | 0.00 | 56 | 1017.7 |
| 20260507154027 | 16 | 145 | 3.2 | 17.7 | 0.00 | 0.00 | 0.00 | 56 | 1017.7 |
| 20260507153524 | 16 | 248 | 3.2 | 24.1 | 0.00 | 0.00 | 0.00 | 58 | 1017.7 |
| 20260507153024 | 15 | 141 | 3.2 | 24.1 | 0.00 | 0.00 | 0.00 | 58 | 1017.7 |
| 20260507152523 | 15 | 158 | 1.6 | 19.3 | 0.00 | 0.00 | 0.00 | 58 | 1017.9 |
| 20260507152022 | 15 | 253 | 4.8 | 19.3 | 0.00 | 0.00 | 0.00 | 60 | 1017.9 |
| 20260507151520 | 15 | 208 | 1.6 | 12.9 | 0.00 | 0.00 | 0.00 | 62 | 1018.0 |
| 20260507151020 | 15 | 115 | 3.2 | 24.1 | 0.00 | 0.00 | 0.00 | 62 | 1018.1 |
| 20260507150519 | 15 | 274 | 9.7 | 24.1 | 0.00 | 0.00 | 0.00 | 61 | 1018.1 |
| 20260507150018 | 15 | 117 | 8.0 | 24.1 | 0.00 | 0.00 | 0.00 | 61 | 1018.0 |
| 20260507145518 | 15 | 122 | 6.4 | 19.3 | 0.00 | 0.00 | 0.00 | 60 | 1018.0 |
| 20260507145016 | 15 | 281 | 3.2 | 14.5 | 0.00 | 0.00 | 0.00 | 62 | 1018.1 |
| 20260507144514 | 14 | 143 | 1.6 | 19.3 | 0.00 | 0.00 | 0.00 | 64 | 1018.1 |
| 20260507144014 | 14 | 252 | 6.4 | 20.9 | 0.00 | 0.00 | 0.00 | 63 | 1018.2 |
| 20260507143513 | 14 | 243 | 4.8 | 20.9 | 0.00 | 0.00 | 0.00 | 64 | 1018.1 |
| 20260507143013 | 14 | 253 | 3.2 | 16.1 | 0.00 | 0.00 | 0.00 | 63 | 1018.1 |
| 20260507142513 | 14 | 235 | 4.8 | 19.3 | 0.00 | 0.00 | 0.00 | 63 | 1018.1 |
| 20260507142011 | 14 | 131 | 3.2 | 16.1 | 0.00 | 0.00 | 0.00 | 64 | 1018.2 |
| 20260507141510 | 14 | 259 | 0.0 | 11.3 | 0.00 | 0.00 | 0.00 | 66 | 1018.2 |
| 20260507141010 | 13 | 270 | 1.6 | 12.9 | 0.00 | 0.00 | 0.00 | 65 | 1018.2 |
| 20260507140513 | 13 | 215 | 0.0 | 11.3 | 0.00 | 0.00 | 0.00 | 65 | 1018.3 |
| 20260507140008 | 13 | 133 | 0.0 | 6.4 | 0.00 | 0.00 | 0.00 | 65 | 1018.3 |
| 20260507135512 | 13 | 205 | 0.0 | 9.7 | 0.00 | 0.00 | 0.00 | 65 | 1018.3 |
| 20260507135010 | 13 | 158 | 1.6 | 9.7 | 0.00 | 0.00 | 0.00 | 65 | 1018.2 |
| 20260507134506 | 13 | 108 | 0.0 | 9.7 | 0.00 | 0.00 | 0.00 | 66 | 1018.4 |
| 20260507134008 | 13 | 149 | 3.2 | 9.7 | 0.00 | 0.00 | 0.00 | 65 | 1018.3 |
| 20260507133504 | 13 | 251 | 0.0 | 0.0 | 0.00 | 0.00 | 0.00 | 65 | 1018.3 |
| 20260507133003 | 12 | 235 | 0.0 | 0.0 | 0.00 | 0.00 | 0.00 | 66 | 1018.3 |
| 20260507132501 | 12 | 276 | 0.0 | 0.0 | 0.00 | 0.00 | 0.00 | 66 | 1018.4 |
| 20260507132100 | 12 | 235 | 0.0 | 0.0 | 0.00 | 0.00 | 0.00 | 67 | 1018.3 |
| 20260507131603 | 12 | 275 | 0.0 | 0.0 | 0.00 | 0.00 | 0.00 | 67 | 1018.5 |
| 20260507131058 | 12 | 205 | 0.0 | 4.8 | 0.00 | 0.00 | 0.00 | 68 | 1018.6 |
| 20260507130556 | 11 | 148 | 0.0 | 4.8 | 0.00 | 0.00 | 0.00 | 68 | 1018.7 |
| 20260507130109 | 11 | 152 | 0.0 | 8.0 | 0.00 | 0.00 | 0.00 | 68 | 1018.7 |
| 20260507125555 | 11 | 123 | 0.0 | 8.0 | 0.00 | 0.00 | 0.00 | 69 | 1018.8 |
| 20260507125053 | 11 | 119 | 0.0 | 0.0 | 0.00 | 0.00 | 0.00 | 70 | 1018.8 |
| 20260507124554 | 10 | 138 | 0.0 | 0.0 | 0.00 | 0.00 | 0.00 | 70 | 1018.7 |
| 20260507124050 | 10 | 162 | 0.0 | 0.0 | 0.00 | 0.00 | 0.00 | 71 | 1018.6 |
| 20260507123549 | 10 | 196 | 0.0 | 8.0 | 0.00 | 0.00 | 0.00 | 72 | 1018.6 |
| 20260507123048 | 9 | 167 | 0.0 | 6.4 | 0.00 | 0.00 | 0.00 | 73 | 1018.7 |
| 20260507122545 | 8 | 162 | 0.0 | 0.0 | 0.00 | 0.00 | 0.00 | 74 | 1018.7 |
| 20260507122043 | 8 | 135 | 0.0 | 0.0 | 0.00 | 0.00 | 0.00 | 75 | 1018.7 |
| 20260507121547 | 8 | 149 | 0.0 | 0.0 | 0.00 | 0.00 | 0.00 | 77 | 1018.8 |
| 20260507121041 | 7 | 183 | 0.0 | 0.0 | 0.00 | 0.00 | 0.00 | 78 | 1018.7 |
| 20260507120541 | 7 | 157 | 0.0 | 0.0 | 0.00 | 0.00 | 0.00 | 81 | 1018.8 |
| 20260507120043 | 6 | 138 | 0.0 | 0.0 | 0.00 | 0.00 | 0.00 | 83 | 1018.6 |
| 20260507115539 | 5 | 139 | 0.0 | 0.0 | 0.00 | 0.00 | 0.00 | 84 | 1018.6 |
| 20260507115040 | 5 | 138 | 0.0 | 0.0 | 0.00 | 0.00 | 0.00 | 84 | 1018.6 |
| 20260507114538 | 5 | 139 | 0.0 | 0.0 | 0.00 | 0.00 | 0.00 | 83 | 1018.6 |
| 20260507114038 | 5 | 139 | 0.0 | 0.0 | 0.00 | 0.00 | 0.00 | 83 | 1018.6 |
| 20260507113538 | 5 | 139 | 0.0 | 0.0 | 0.00 | 0.00 | 0.00 | 82 | 1018.5 |
| 20260507113038 | 5 | 138 | 0.0 | 0.0 | 0.00 | 0.00 | 0.00 | 81 | 1018.4 |
| 20260507112540 | 5 | 139 | 0.0 | 0.0 | 0.00 | 0.00 | 0.00 | 80 | 1018.4 |
| 20260507112037 | 6 | 139 | 0.0 | 0.0 | 0.00 | 0.00 | 0.00 | 80 | 1018.4 |
| 20260507111537 | 6 | 139 | 0.0 | 0.0 | 0.00 | 0.00 | 0.00 | 81 | 1018.4 |
| 20260507111038 | 5 | 146 | 0.0 | 0.0 | 0.00 | 0.00 | 0.00 | 81 | 1018.4 |
| 20260507110539 | 5 | 146 | 0.0 | 0.0 | 0.00 | 0.00 | 0.00 | 82 | 1018.4 |
| 20260507110037 | 5 | 146 | 0.0 | 0.0 | 0.00 | 0.00 | 0.00 | 82 | 1018.4 |
| 20260507105536 | 5 | 146 | 0.0 | 0.0 | 0.00 | 0.00 | 0.00 | 82 | 1018.4 |
| 20260507105041 | 5 | 146 | 0.0 | 0.0 | 0.00 | 0.00 | 0.00 | 81 | 1018.4 |
| 20260507104537 | 5 | 146 | 0.0 | 0.0 | 0.00 | 0.00 | 0.00 | 81 | 1018.4 |
| 20260507104037 | 5 | 146 | 0.0 | 0.0 | 0.00 | 0.00 | 0.00 | 81 | 1018.4 |
| 20260507103539 | 5 | 146 | 0.0 | 0.0 | 0.00 | 0.00 | 0.00 | 82 | 1018.4 |
| 20260507103037 | 5 | 146 | 0.0 | 0.0 | 0.00 | 0.00 | 0.00 | 82 | 1018.4 |
| 20260507102536 | 5 | 146 | 0.0 | 0.0 | 0.00 | 0.00 | 0.00 | 82 | 1018.3 |
| 20260507102035 | 5 | 146 | 0.0 | 0.0 | 0.00 | 0.00 | 0.00 | 82 | 1018.4 |
| 20260507101537 | 5 | 146 | 0.0 | 0.0 | 0.00 | 0.00 | 0.00 | 81 | 1018.3 |
| 20260507101034 | 5 | 146 | 0.0 | 0.0 | 0.00 | 0.00 | 0.00 | 81 | 1018.5 |
| 20260507100537 | 5 | 146 | 0.0 | 0.0 | 0.00 | 0.00 | 0.00 | 81 | 1018.4 |
| 20260507100039 | 5 | 146 | 0.0 | 0.0 | 0.00 | 0.00 | 0.00 | 81 | 1018.4 |
| 20260507095533 | 5 | 146 | 0.0 | 0.0 | 0.00 | 0.00 | 0.00 | 80 | 1018.4 |
| 20260507095032 | 5 | 146 | 0.0 | 0.0 | 0.00 | 0.00 | 0.00 | 79 | 1018.5 |
| 20260507094535 | 5 | 146 | 0.0 | 0.0 | 0.00 | 0.00 | 0.00 | 79 | 1018.6 |
| 20260507094031 | 5 | 146 | 0.0 | 0.0 | 0.00 | 0.00 | 0.00 | 77 | 1018.6 |
| 20260507093531 | 6 | 146 | 0.0 | 0.0 | 0.00 | 0.00 | 0.00 | 77 | 1018.6 |
| 20260507093031 | 6 | 146 | 0.0 | 0.0 | 0.00 | 0.00 | 0.00 | 76 | 1018.7 |
| 20260507092531 | 6 | 146 | 0.0 | 0.0 | 0.00 | 0.00 | 0.00 | 76 | 1018.7 |
| 20260507092030 | 6 | 146 | 0.0 | 0.0 | 0.00 | 0.00 | 0.00 | 76 | 1018.7 |
| 20260507091530 | 6 | 146 | 0.0 | 0.0 | 0.00 | 0.00 | 0.00 | 77 | 1018.7 |
| 20260507091030 | 6 | 146 | 0.0 | 0.0 | 0.00 | 0.00 | 0.00 | 77 | 1018.6 |
| 20260507090531 | 6 | 146 | 0.0 | 0.0 | 0.00 | 0.00 | 0.00 | 75 | 1018.7 |
| 20260507090033 | 6 | 146 | 0.0 | 0.0 | 0.00 | 0.00 | 0.00 | 75 | 1018.7 |
| 20260507085529 | 6 | 146 | 0.0 | 0.0 | 0.00 | 0.00 | 0.00 | 76 | 1018.7 |
| 20260507085029 | 6 | 147 | 0.0 | 0.0 | 0.00 | 0.00 | 0.00 | 76 | 1018.6 |
| 20260507084529 | 6 | 146 | 0.0 | 0.0 | 0.00 | 0.00 | 0.00 | 75 | 1018.7 |
| 20260507084028 | 6 | 146 | 0.0 | 0.0 | 0.00 | 0.00 | 0.00 | 75 | 1018.7 |
| 20260507083528 | 6 | 146 | 0.0 | 0.0 | 0.00 | 0.00 | 0.00 | 75 | 1018.7 |
| 20260507083029 | 6 | 146 | 0.0 | 0.0 | 0.00 | 0.00 | 0.00 | 75 | 1018.7 |
| 20260507082527 | 6 | 146 | 0.0 | 0.0 | 0.00 | 0.00 | 0.00 | 76 | 1018.7 |
| 20260507082027 | 6 | 146 | 0.0 | 0.0 | 0.00 | 0.00 | 0.00 | 76 | 1018.7 |
| 20260507081540 | 6 | 146 | 0.0 | 0.0 | 0.00 | 0.00 | 0.00 | 74 | 1018.7 |
| 20260507081029 | 7 | 146 | 0.0 | 0.0 | 0.00 | 0.00 | 0.00 | 73 | 1018.6 |
| 20260507080527 | 6 | 146 | 0.0 | 0.0 | 0.00 | 0.00 | 0.00 | 73 | 1018.6 |
| 20260507080027 | 7 | 146 | 0.0 | 0.0 | 0.00 | 0.00 | 0.00 | 74 | 1018.6 |
| 20260507075531 | 7 | 146 | 0.0 | 0.0 | 0.00 | 0.03 | 0.00 | 73 | 1018.6 |
| 20260507075029 | 6 | 146 | 0.0 | 0.0 | 0.00 | 0.03 | 0.00 | 74 | 1018.6 |
| 20260507074545 | 6 | 146 | 0.0 | 0.0 | 0.00 | 0.03 | 0.00 | 75 | 1018.6 |
| 20260507074030 | 7 | 146 | 0.0 | 0.0 | 0.00 | 0.03 | 0.00 | 75 | 1018.7 |
| 20260507073525 | 7 | 146 | 0.0 | 0.0 | 0.00 | 0.03 | 0.00 | 74 | 1018.7 |
| 20260507073025 | 7 | 146 | 0.0 | 0.0 | 0.00 | 0.03 | 0.00 | 74 | 1018.8 |
| 20260507072526 | 7 | 146 | 0.0 | 0.0 | 0.00 | 0.03 | 0.00 | 75 | 1018.9 |
| 20260507072022 | 7 | 146 | 0.0 | 0.0 | 0.00 | 0.03 | 0.00 | 75 | 1019.0 |
| 20260507071522 | 7 | 146 | 0.0 | 0.0 | 0.00 | 0.03 | 0.00 | 74 | 1019.1 |
| 20260507071022 | 7 | 146 | 0.0 | 0.0 | 0.00 | 0.03 | 0.00 | 75 | 1019.1 |
| 20260507070526 | 7 | 146 | 0.0 | 0.0 | 0.00 | 0.03 | 0.00 | 75 | 1019.1 |
| 20260507070022 | 7 | 146 | 0.0 | 0.0 | 0.00 | 0.03 | 0.00 | 74 | 1019.1 |
| 20260507065523 | 7 | 146 | 0.0 | 0.0 | 0.00 | 0.05 | 0.00 | 73 | 1019.1 |
| 20260507065020 | 7 | 146 | 0.0 | 0.0 | 0.00 | 0.05 | 0.00 | 73 | 1019.2 |
| 20260507064520 | 7 | 146 | 0.0 | 0.0 | 0.00 | 0.05 | 0.00 | 72 | 1019.2 |
| 20260507064019 | 7 | 146 | 0.0 | 0.0 | 0.00 | 0.05 | 0.00 | 73 | 1019.3 |
| 20260507063519 | 7 | 146 | 0.0 | 0.0 | 0.00 | 0.05 | 0.00 | 73 | 1019.3 |
| 20260507063024 | 7 | 146 | 0.0 | 0.0 | 0.00 | 0.05 | 0.00 | 73 | 1019.3 |
| 20260507062518 | 7 | 146 | 0.0 | 0.0 | 0.00 | 0.05 | 0.00 | 74 | 1019.4 |
| 20260507062018 | 7 | 146 | 0.0 | 0.0 | 0.00 | 0.05 | 0.00 | 73 | 1019.4 |
| 20260507061518 | 7 | 146 | 0.0 | 0.0 | 0.00 | 0.05 | 0.00 | 73 | 1019.3 |
| 20260507061017 | 7 | 146 | 0.0 | 0.0 | 0.00 | 0.05 | 0.00 | 74 | 1019.3 |
| 20260507060517 | 7 | 146 | 0.0 | 0.0 | 0.00 | 0.05 | 0.00 | 74 | 1019.3 |
| 20260507060022 | 7 | 150 | 0.0 | 0.0 | 0.00 | 0.05 | 0.00 | 74 | 1019.3 |
| 20260507055517 | 7 | 165 | 0.0 | 0.0 | 0.00 | 0.05 | 0.00 | 75 | 1019.4 |
| 20260507055016 | 7 | 155 | 0.0 | 0.0 | 0.00 | 0.05 | 0.00 | 75 | 1019.4 |
| 20260507054515 | 7 | 155 | 0.0 | 0.0 | 0.00 | 0.05 | 0.00 | 74 | 1019.4 |
| 20260507054014 | 7 | 146 | 0.0 | 0.0 | 0.00 | 0.05 | 0.00 | 72 | 1019.4 |
| 20260507053513 | 7 | 161 | 0.0 | 0.0 | 0.00 | 0.05 | 0.00 | 71 | 1019.3 |
| 20260507053010 | 7 | 153 | 0.0 | 0.0 | 0.00 | 0.05 | 0.00 | 71 | 1019.3 |
| 20260507052509 | 7 | 139 | 0.0 | 0.0 | 0.00 | 0.05 | 0.00 | 71 | 1019.3 |
| 20260507052009 | 7 | 148 | 0.0 | 0.0 | 0.00 | 0.05 | 0.00 | 72 | 1019.3 |
| 20260507051506 | 7 | 155 | 0.0 | 0.0 | 0.00 | 0.05 | 0.00 | 74 | 1019.3 |
| 20260507051008 | 6 | 131 | 0.0 | 0.0 | 0.00 | 0.05 | 0.00 | 77 | 1019.3 |
| 20260507050504 | 6 | 152 | 0.0 | 0.0 | 0.00 | 0.05 | 0.00 | 80 | 1019.3 |
| 20260507050006 | 5 | 152 | 0.0 | 0.0 | 0.00 | 0.05 | 0.00 | 83 | 1019.4 |
| 20260507045501 | 5 | 283 | 0.0 | 0.0 | 0.00 | 0.05 | 0.05 | 84 | 1019.5 |
| 20260507045002 | 5 | 283 | 0.0 | 0.0 | 0.00 | 0.05 | 0.05 | 85 | 1019.4 |
| 20260507044502 | 5 | 283 | 0.0 | 0.0 | 0.00 | 0.05 | 0.05 | 85 | 1019.4 |
| 20260507044000 | 5 | 282 | 0.0 | 0.0 | 0.00 | 0.05 | 0.05 | 84 | 1019.4 |
| 20260507043501 | 5 | 283 | 0.0 | 0.0 | 0.00 | 0.05 | 0.05 | 85 | 1019.3 |
| 20260507043001 | 5 | 283 | 0.0 | 0.0 | 0.00 | 0.05 | 0.05 | 85 | 1019.3 |
| 20260507042601 | 5 | 283 | 0.0 | 0.0 | 0.00 | 0.05 | 0.05 | 84 | 1019.3 |
| 20260507042059 | 5 | 282 | 0.0 | 0.0 | 0.00 | 0.05 | 0.05 | 83 | 1019.3 |
| 20260507041604 | 5 | 282 | 0.0 | 0.0 | 0.00 | 0.05 | 0.05 | 83 | 1019.5 |
| 20260507041101 | 5 | 283 | 0.0 | 0.0 | 0.00 | 0.05 | 0.05 | 84 | 1019.6 |
| 20260507040558 | 5 | 283 | 0.0 | 0.0 | 0.00 | 0.05 | 0.05 | 84 | 1019.7 |
| 20260507040159 | 5 | 283 | 0.0 | 0.0 | 0.00 | 0.05 | 0.05 | 82 | 1019.7 |
| 20260507035557 | 5 | 283 | 0.0 | 0.0 | 0.00 | 0.05 | 0.05 | 81 | 1019.6 |
| 20260507035056 | 5 | 283 | 0.0 | 0.0 | 0.00 | 0.05 | 0.05 | 81 | 1019.6 |
| 20260507034600 | 5 | 283 | 0.0 | 0.0 | 0.00 | 0.05 | 0.05 | 80 | 1019.6 |
| 20260507034055 | 5 | 283 | 0.0 | 0.0 | 0.00 | 0.05 | 0.05 | 80 | 1019.5 |
| 20260507033558 | 5 | 282 | 0.0 | 0.0 | 0.00 | 0.05 | 0.05 | 80 | 1019.5 |
| 20260507033100 | 5 | 282 | 0.0 | 0.0 | 0.00 | 0.05 | 0.05 | 79 | 1019.5 |
| 20260507032554 | 6 | 282 | 0.0 | 0.0 | 0.00 | 0.05 | 0.05 | 77 | 1019.5 |
| 20260507032052 | 6 | 283 | 0.0 | 0.0 | 0.00 | 0.05 | 0.05 | 76 | 1019.5 |
| 20260507031605 | 6 | 283 | 0.0 | 0.0 | 0.00 | 0.05 | 0.05 | 76 | 1019.5 |
| 20260507031052 | 6 | 282 | 0.0 | 0.0 | 0.00 | 0.05 | 0.05 | 74 | 1019.6 |
| 20260507030551 | 6 | 283 | 0.0 | 0.0 | 0.00 | 0.05 | 0.05 | 74 | 1019.5 |
| 20260507030055 | 6 | 283 | 0.0 | 0.0 | 0.00 | 0.05 | 0.05 | 73 | 1019.5 |
| 20260507025552 | 6 | 282 | 0.0 | 0.0 | 0.00 | 0.05 | 0.05 | 72 | 1019.4 |
| 20260507025048 | 6 | 283 | 0.0 | 0.0 | 0.00 | 0.05 | 0.05 | 72 | 1019.5 |
| 20260507024549 | 6 | 283 | 0.0 | 0.0 | 0.00 | 0.05 | 0.05 | 71 | 1019.4 |
| 20260507024049 | 7 | 283 | 0.0 | 0.0 | 0.00 | 0.05 | 0.05 | 70 | 1019.3 |
| 20260507023548 | 7 | 283 | 0.0 | 0.0 | 0.00 | 0.05 | 0.05 | 71 | 1019.2 |
| 20260507023056 | 7 | 283 | 0.0 | 0.0 | 0.00 | 0.05 | 0.05 | 69 | 1019.2 |
| 20260507022548 | 7 | 283 | 0.0 | 0.0 | 0.00 | 0.05 | 0.05 | 68 | 1019.2 |
| 20260507022048 | 7 | 283 | 0.0 | 0.0 | 0.00 | 0.05 | 0.05 | 66 | 1019.2 |
| 20260507021547 | 8 | 283 | 0.0 | 0.0 | 0.00 | 0.05 | 0.05 | 65 | 1019.2 |
| 20260507021050 | 8 | 283 | 0.0 | 0.0 | 0.00 | 0.05 | 0.05 | 63 | 1019.1 |
| 20260507020547 | 8 | 282 | 0.0 | 0.0 | 0.00 | 0.05 | 0.05 | 62 | 1019.0 |
| 20260507020049 | 8 | 283 | 0.0 | 0.0 | 0.00 | 0.05 | 0.05 | 60 | 1019.0 |
| 20260507015548 | 9 | 283 | 0.0 | 0.0 | 0.00 | 0.05 | 0.05 | 59 | 1019.1 |
| 20260507015046 | 9 | 283 | 0.0 | 0.0 | 0.00 | 0.05 | 0.05 | 58 | 1019.0 |
| 20260507014552 | 10 | 282 | 0.0 | 0.0 | 0.00 | 0.05 | 0.05 | 55 | 1019.0 |
| 20260507014046 | 10 | 283 | 0.0 | 0.0 | 0.00 | 0.05 | 0.05 | 54 | 1018.9 |
| 20260507013546 | 10 | 283 | 0.0 | 0.0 | 0.00 | 0.05 | 0.05 | 52 | 1018.9 |
| 20260507013047 | 11 | 283 | 0.0 | 0.0 | 0.00 | 0.05 | 0.05 | 49 | 1018.8 |
| 20260507012546 | 11 | 283 | 0.0 | 0.0 | 0.00 | 0.05 | 0.05 | 47 | 1018.7 |
| 20260507012045 | 12 | 283 | 0.0 | 0.0 | 0.00 | 0.05 | 0.05 | 46 | 1018.6 |
| 20260507011545 | 12 | 283 | 0.0 | 0.0 | 0.00 | 0.05 | 0.05 | 44 | 1018.6 |
| 20260507011044 | 13 | 282 | 0.0 | 0.0 | 0.00 | 0.05 | 0.05 | 42 | 1018.6 |
| 20260507010545 | 13 | 282 | 0.0 | 0.0 | 0.00 | 0.05 | 0.05 | 41 | 1018.6 |
| 20260507010045 | 13 | 282 | 0.0 | 0.0 | 0.00 | 0.05 | 0.05 | 40 | 1018.5 |
| 20260507005544 | 13 | 282 | 0.0 | 0.0 | 0.00 | 0.05 | 0.05 | 39 | 1018.5 |
| 20260507005044 | 14 | 283 | 0.0 | 0.0 | 0.00 | 0.05 | 0.05 | 38 | 1018.4 |
| 20260507004545 | 14 | 212 | 0.0 | 0.0 | 0.00 | 0.05 | 0.05 | 39 | 1018.4 |
| 20260507004044 | 14 | 277 | 0.0 | 0.0 | 0.00 | 0.05 | 0.05 | 38 | 1018.6 |
| 20260507003546 | 15 | 270 | 0.0 | 6.4 | 0.00 | 0.05 | 0.05 | 37 | 1018.4 |
| 20260507003049 | 15 | 293 | 0.0 | 6.4 | 0.00 | 0.05 | 0.05 | 36 | 1018.4 |
| 20260507002546 | 15 | 316 | 0.0 | 3.2 | 0.00 | 0.05 | 0.05 | 36 | 1018.4 |
| 20260507002042 | 15 | 284 | 0.0 | 0.0 | 0.00 | 0.05 | 0.05 | 36 | 1018.3 |
| 20260507001544 | 15 | 278 | 0.0 | 0.0 | 0.00 | 0.05 | 0.05 | 36 | 1018.3 |
| 20260507001042 | 15 | 265 | 0.0 | 4.8 | 0.00 | 0.05 | 0.05 | 37 | 1018.4 |
| 20260507000545 | 15 | 322 | 0.0 | 9.7 | 0.00 | 0.05 | 0.05 | 37 | 1018.4 |
| 20260507000043 | 15 | 295 | 1.6 | 11.3 | 0.00 | 0.05 | 0.05 | 35 | 1018.4 |
| 20260506235542 | 15 | 291 | 0.0 | 11.3 | 0.00 | 0.05 | 0.05 | 36 | 1018.5 |
| 20260506235043 | 15 | 270 | 1.6 | 14.5 | 0.00 | 0.05 | 0.05 | 35 | 1018.5 |
| 20260506234541 | 15 | 254 | 1.6 | 8.0 | 0.00 | 0.05 | 0.05 | 36 | 1018.5 |
| 20260506234041 | 15 | 297 | 0.0 | 6.4 | 0.00 | 0.05 | 0.05 | 36 | 1018.4 |
| 20260506233541 | 15 | 333 | 0.0 | 0.0 | 0.00 | 0.05 | 0.05 | 36 | 1018.4 |
| 20260506233046 | 15 | 22 | 0.0 | 6.4 | 0.00 | 0.05 | 0.05 | 35 | 1018.4 |
| 20260506232540 | 15 | 329 | 0.0 | 9.7 | 0.00 | 0.05 | 0.05 | 36 | 1018.3 |
| 20260506232040 | 15 | 297 | 3.2 | 16.1 | 0.00 | 0.05 | 0.05 | 36 | 1018.3 |
| 20260506231542 | 15 | 304 | 6.4 | 16.1 | 0.00 | 0.05 | 0.05 | 35 | 1018.4 |
| 20260506231040 | 15 | 309 | 3.2 | 14.5 | 0.00 | 0.05 | 0.05 | 37 | 1018.4 |
| 20260506230539 | 15 | 320 | 3.2 | 14.5 | 0.00 | 0.05 | 0.05 | 35 | 1018.3 |
| 20260506230039 | 15 | 331 | 3.2 | 14.5 | 0.00 | 0.05 | 0.05 | 35 | 1018.4 |
| 20260506225541 | 15 | 9 | 1.6 | 14.5 | 0.00 | 0.05 | 0.05 | 37 | 1018.3 |
| 20260506225039 | 15 | 360 | 1.6 | 17.7 | 0.00 | 0.05 | 0.05 | 38 | 1018.3 |
| 20260506224539 | 15 | 4 | 0.0 | 17.7 | 0.00 | 0.05 | 0.05 | 38 | 1018.4 |
| 20260506224038 | 15 | 253 | 1.6 | 16.1 | 0.00 | 0.05 | 0.05 | 38 | 1018.3 |
| 20260506223538 | 15 | 309 | 0.0 | 16.1 | 0.00 | 0.05 | 0.05 | 37 | 1018.4 |
| 20260506223037 | 15 | 302 | 1.6 | 12.9 | 0.00 | 0.05 | 0.05 | 37 | 1018.3 |
| 20260506222537 | 15 | 79 | 4.8 | 20.9 | 0.00 | 0.05 | 0.05 | 36 | 1018.4 |
| 20260506222036 | 15 | 333 | 9.7 | 20.9 | 0.00 | 0.05 | 0.05 | 35 | 1018.5 |
| 20260506221537 | 15 | 294 | 0.0 | 19.3 | 0.00 | 0.05 | 0.05 | 36 | 1018.5 |
| 20260506221036 | 15 | 315 | 0.0 | 9.7 | 0.00 | 0.05 | 0.05 | 36 | 1018.5 |
| 20260506220536 | 15 | 305 | 1.6 | 14.5 | 0.00 | 0.05 | 0.05 | 38 | 1018.6 |
| 20260506220037 | 15 | 300 | 3.2 | 16.1 | 0.00 | 0.05 | 0.05 | 37 | 1018.7 |
| 20260506215539 | 15 | 278 | 1.6 | 17.7 | 0.00 | 0.05 | 0.05 | 36 | 1018.8 |
| 20260506215036 | 15 | 260 | 6.4 | 17.7 | 0.00 | 0.05 | 0.05 | 37 | 1018.7 |
| 20260506214536 | 15 | 335 | 0.0 | 8.0 | 0.00 | 0.05 | 0.05 | 36 | 1018.8 |
| 20260506214035 | 15 | 292 | 0.0 | 17.7 | 0.00 | 0.05 | 0.05 | 36 | 1018.9 |
| 20260506213634 | 15 | 322 | 0.0 | 24.1 | 0.00 | 0.05 | 0.05 | 38 | 1018.9 |
| 20260506213034 | 15 | 302 | 11.3 | 24.1 | 0.00 | 0.05 | 0.05 | 36 | 1018.8 |
| 20260506212534 | 15 | 284 | 1.6 | 20.9 | 0.00 | 0.05 | 0.05 | 36 | 1018.8 |
| 20260506212035 | 15 | 278 | 0.0 | 11.3 | 0.00 | 0.05 | 0.05 | 39 | 1018.7 |
| 20260506211535 | 15 | 322 | 3.2 | 14.5 | 0.00 | 0.05 | 0.05 | 37 | 1018.9 |
| 20260506211033 | 15 | 293 | 6.4 | 19.3 | 0.00 | 0.05 | 0.05 | 35 | 1019.2 |
| 20260506210533 | 15 | 300 | 9.7 | 19.3 | 0.00 | 0.05 | 0.05 | 36 | 1019.2 |
| 20260506210033 | 15 | 277 | 4.8 | 20.9 | 0.00 | 0.05 | 0.05 | 37 | 1019.3 |
| 20260506205535 | 15 | 236 | 9.7 | 17.7 | 0.00 | 0.08 | 0.05 | 36 | 1019.3 |
| 20260506205034 | 15 | 252 | 6.4 | 17.7 | 0.00 | 0.08 | 0.05 | 35 | 1019.4 |
| 20260506204531 | 15 | 88 | 0.0 | 0.0 | 0.00 | 0.08 | 0.05 | 37 | 1019.4 |
| 20260506204033 | 15 | 82 | 0.0 | 11.3 | 0.00 | 0.08 | 0.05 | 38 | 1019.4 |
| 20260506203530 | 15 | 314 | 1.6 | 11.3 | 0.00 | 0.08 | 0.05 | 40 | 1019.6 |
| 20260506203030 | 15 | 266 | 0.0 | 11.3 | 0.00 | 0.08 | 0.05 | 36 | 1019.6 |
| 20260506202530 | 15 | 262 | 4.8 | 19.3 | 0.00 | 0.08 | 0.05 | 35 | 1019.6 |
| 20260506202030 | 14 | 274 | 4.8 | 20.9 | 0.00 | 0.08 | 0.05 | 39 | 1019.7 |
| 20260506201531 | 15 | 327 | 9.7 | 20.9 | 0.00 | 0.08 | 0.05 | 35 | 1019.8 |
| 20260506201030 | 15 | 295 | 4.8 | 19.3 | 0.00 | 0.08 | 0.05 | 38 | 1019.8 |
| 20260506200533 | 15 | 319 | 3.2 | 17.7 | 0.00 | 0.08 | 0.05 | 38 | 1019.9 |
| 20260506200029 | 15 | 263 | 3.2 | 12.9 | 0.00 | 0.08 | 0.05 | 37 | 1019.9 |
| 20260506195528 | 15 | 298 | 0.0 | 8.0 | 0.00 | 0.13 | 0.05 | 40 | 1019.9 |
| 20260506195027 | 15 | 86 | 0.0 | 8.0 | 0.00 | 0.13 | 0.05 | 39 | 1019.8 |
| 20260506194527 | 14 | 259 | 1.6 | 8.0 | 0.00 | 0.13 | 0.05 | 37 | 1020.0 |
| 20260506194028 | 14 | 86 | 0.0 | 12.9 | 0.00 | 0.13 | 0.05 | 39 | 1020.0 |
| 20260506193526 | 14 | 295 | 1.6 | 11.3 | 0.00 | 0.13 | 0.05 | 37 | 1020.0 |
| 20260506193028 | 14 | 75 | 0.0 | 16.1 | 0.00 | 0.13 | 0.05 | 38 | 1020.1 |
| 20260506192528 | 14 | 280 | 4.8 | 14.5 | 0.00 | 0.13 | 0.05 | 40 | 1020.1 |
| 20260506192024 | 14 | 108 | 0.0 | 12.9 | 0.00 | 0.13 | 0.05 | 40 | 1020.1 |
| 20260506191524 | 14 | 23 | 1.6 | 14.5 | 0.00 | 0.13 | 0.05 | 41 | 1020.1 |
| 20260506191024 | 14 | 327 | 4.8 | 16.1 | 0.00 | 0.13 | 0.05 | 39 | 1020.3 |
| 20260506190523 | 13 | 289 | 4.8 | 16.1 | 0.00 | 0.13 | 0.05 | 41 | 1020.2 |
| 20260506190021 | 13 | 302 | 1.6 | 12.9 | 0.00 | 0.13 | 0.05 | 40 | 1020.3 |
| 20260506185520 | 13 | 251 | 3.2 | 12.9 | 0.00 | 0.13 | 0.05 | 39 | 1020.3 |
| 20260506185020 | 13 | 297 | 3.2 | 11.3 | 0.00 | 0.13 | 0.05 | 38 | 1020.4 |
| 20260506184520 | 13 | 305 | 6.4 | 11.3 | 0.00 | 0.13 | 0.05 | 40 | 1020.5 |
| 20260506184019 | 13 | 13 | 3.2 | 12.9 | 0.00 | 0.13 | 0.05 | 41 | 1020.4 |
| 20260506183519 | 13 | 355 | 1.6 | 12.9 | 0.00 | 0.13 | 0.05 | 41 | 1020.4 |
| 20260506183018 | 13 | 286 | 4.8 | 17.7 | 0.00 | 0.13 | 0.05 | 40 | 1020.5 |
| 20260506182517 | 13 | 304 | 8.0 | 17.7 | 0.00 | 0.13 | 0.05 | 40 | 1020.5 |
| 20260506182020 | 13 | 281 | 3.2 | 12.9 | 0.00 | 0.13 | 0.05 | 39 | 1020.5 |
| 20260506181516 | 13 | 324 | 0.0 | 8.0 | 0.00 | 0.13 | 0.05 | 44 | 1020.5 |
| 20260506181020 | 13 | 253 | 0.0 | 8.0 | 0.00 | 0.13 | 0.05 | 44 | 1020.7 |
| 20260506180516 | 12 | 285 | 1.6 | 12.9 | 0.00 | 0.13 | 0.05 | 40 | 1020.9 |
| 20260506180015 | 12 | 344 | 1.6 | 12.9 | 0.00 | 0.13 | 0.05 | 40 | 1020.8 |
| 20260506175515 | 12 | 281 | 0.0 | 9.7 | 0.00 | 0.18 | 0.05 | 42 | 1020.9 |
| 20260506175019 | 12 | 276 | 3.2 | 12.9 | 0.00 | 0.18 | 0.05 | 39 | 1020.8 |
| 20260506174515 | 12 | 280 | 6.4 | 14.5 | 0.00 | 0.18 | 0.05 | 39 | 1020.9 |
| 20260506174015 | 12 | 281 | 6.4 | 14.5 | 0.00 | 0.18 | 0.05 | 39 | 1020.9 |
| 20260506173515 | 12 | 277 | 1.6 | 8.0 | 0.00 | 0.18 | 0.05 | 42 | 1021.0 |
| 20260506173014 | 12 | 281 | 1.6 | 17.7 | 0.00 | 0.18 | 0.05 | 42 | 1021.0 |
| 20260506172513 | 12 | 248 | 4.8 | 19.3 | 0.00 | 0.18 | 0.05 | 41 | 1020.9 |
| 20260506172012 | 12 | 308 | 6.4 | 16.1 | 0.00 | 0.18 | 0.05 | 41 | 1020.9 |
| 20260506171513 | 12 | 349 | 1.6 | 11.3 | 0.00 | 0.18 | 0.05 | 42 | 1020.8 |
| 20260506171012 | 12 | 348 | 3.2 | 19.3 | 0.00 | 0.18 | 0.05 | 43 | 1020.9 |
| 20260506170511 | 12 | 262 | 6.4 | 19.3 | 0.00 | 0.18 | 0.05 | 41 | 1020.9 |
| 20260506170012 | 12 | 271 | 8.0 | 16.1 | 0.00 | 0.18 | 0.05 | 41 | 1020.9 |
| 20260506165515 | 12 | 326 | 0.0 | 12.9 | 0.00 | 0.43 | 0.05 | 46 | 1020.7 |
| 20260506165011 | 12 | 284 | 4.8 | 11.3 | 0.00 | 0.43 | 0.05 | 46 | 1020.7 |
| 20260506164510 | 12 | 257 | 1.6 | 14.5 | 0.00 | 0.43 | 0.05 | 45 | 1020.8 |
| 20260506164011 | 12 | 284 | 6.4 | 14.5 | 0.00 | 0.43 | 0.05 | 44 | 1020.8 |
| 20260506163510 | 12 | 295 | 3.2 | 17.7 | 0.00 | 0.43 | 0.05 | 45 | 1020.8 |
| 20260506163029 | 12 | 283 | 8.0 | 17.7 | 0.00 | 0.43 | 0.05 | 43 | 1020.7 |
| 20260506162512 | 12 | 291 | 3.2 | 14.5 | 0.00 | 0.43 | 0.05 | 45 | 1020.6 |
| 20260506162008 | 12 | 72 | 4.8 | 16.1 | 0.00 | 0.43 | 0.05 | 44 | 1020.5 |
| 20260506161508 | 12 | 315 | 4.8 | 16.1 | 0.00 | 0.43 | 0.05 | 45 | 1020.6 |
| 20260506161010 | 12 | 245 | 6.4 | 17.7 | 0.00 | 0.43 | 0.05 | 43 | 1020.6 |
| 20260506160510 | 12 | 304 | 6.4 | 17.7 | 0.00 | 0.43 | 0.05 | 43 | 1020.6 |
| 20260506160016 | 12 | 8 | 1.6 | 16.1 | 0.00 | 0.43 | 0.05 | 46 | 1020.5 |